User: anonymous   Login
Location: Cruquius
(52.3348°N, 4.6319°E)
Time: 11:53:58
(UTC+00:00)
Language:

Meteor 1-19 Rocket - Orbit

View from above orbital plane
View from above orbital plane
View from above satellite
View from above satellite

Ground track
Ground track

The orbit data is extracted from the following two-line orbital elements,

1  7493U 74083B   21212.03198014  .00000068  00000-0  32108-4 0  9991
2  7493  81.1620 128.6073 0082281 187.0115 172.9911 14.07594419400518
Epoch (UTC): 31 July 2021 00:46:03
Eccentricity: 0.0082281
inclination: 81.1620°
perigee height: 808 km
apogee height: 927 km
right ascension of ascending node: 128.6073°
argument of perigee: 187.0115°
revolutions per day: 14.07594419
mean anomaly at epoch: 172.9911°
orbit number at epoch: 40051

The dashed part of the orbit path shows where the satellite is in the earth's shadow,  

DLR